| time (UTC) | temp F | wind direction | speed MPH | gust MPH | rain 1hr in | rain 24hr in | rain mn in | humidity % | barometer mb |
| 20260504011541 | 86 | 271 | 4.0 | 9.0 | 0.00 | 0.00 | 0.00 | 30 | 1007.7 |
| 20260504010117 | 87 | 278 | 5.0 | 8.0 | 0.00 | 0.00 | 0.00 | 31 | 1007.7 |
| 20260504004540 | 87 | 276 | 5.0 | 9.0 | 0.00 | 0.00 | 0.00 | 31 | 1007.8 |
| 20260504003037 | 89 | 278 | 1.0 | 3.0 | 0.00 | 0.00 | 0.00 | 30 | 1007.9 |
| 20260504001557 | 89 | 274 | 0.0 | 1.0 | 0.00 | 0.00 | 0.00 | 27 | 1007.8 |
| 20260504000044 | 88 | 0 | 0.0 | 3.0 | 0.00 | 0.00 | 0.00 | 26 | 1007.9 |
| 20260503234543 | 88 | 0 | 0.0 | 4.0 | 0.00 | 0.00 | 0.00 | 27 | 1007.9 |
| 20260503233040 | 88 | 127 | 0.0 | 3.0 | 0.00 | 0.00 | 0.00 | 27 | 1008.1 |
| 20260503231540 | 88 | 200 | 0.0 | 2.0 | 0.00 | 0.00 | 0.00 | 30 | 1008.2 |
| 20260503230046 | 88 | 0 | 1.0 | 3.0 | 0.00 | 0.00 | 0.00 | 29 | 1008.5 |
| 20260503224542 | 88 | 0 | 1.0 | 4.0 | 0.00 | 0.00 | 0.00 | 29 | 1008.8 |
| 20260503223043 | 89 | 0 | 0.0 | 4.0 | 0.00 | 0.00 | 0.00 | 31 | 1009.0 |
| 20260503221545 | 89 | 3 | 0.0 | 3.0 | 0.00 | 0.00 | 0.00 | 30 | 1009.3 |
| 20260503220043 | 89 | 229 | 0.0 | 1.0 | 0.00 | 0.00 | 0.00 | 30 | 1009.4 |
| 20260503214539 | 89 | 0 | 0.0 | 2.0 | 0.00 | 0.00 | 0.00 | 33 | 1009.6 |
| 20260503213045 | 88 | 160 | 1.0 | 4.0 | 0.00 | 0.00 | 0.00 | 28 | 1009.7 |
| 20260503211537 | 88 | 207 | 0.0 | 3.0 | 0.00 | 0.00 | 0.00 | 35 | 1009.8 |
| 20260503210043 | 87 | 0 | 0.0 | 3.0 | 0.00 | 0.00 | 0.00 | 36 | 1010.0 |
| 20260503204552 | 87 | 18 | 0.0 | 3.0 | 0.00 | 0.00 | 0.00 | 38 | 1010.1 |
| 20260503203042 | 86 | 129 | 0.0 | 4.0 | 0.00 | 0.00 | 0.00 | 40 | 1010.4 |
| 20260503201539 | 85 | 230 | 1.0 | 3.0 | 0.00 | 0.00 | 0.00 | 42 | 1010.7 |
| 20260503200038 | 84 | 0 | 1.0 | 5.0 | 0.00 | 0.00 | 0.00 | 44 | 1010.7 |
| 20260503194539 | 83 | 130 | 0.0 | 4.0 | 0.00 | 0.00 | 0.00 | 44 | 1010.8 |
| 20260503193055 | 82 | 145 | 0.0 | 5.0 | 0.00 | 0.00 | 0.00 | 45 | 1011.0 |
| 20260503191544 | 81 | 0 | 0.0 | 2.0 | 0.00 | 0.00 | 0.00 | 45 | 1011.1 |
| 20260503190053 | 80 | 172 | 0.0 | 3.0 | 0.00 | 0.00 | 0.00 | 49 | 1011.1 |
| 20260503184541 | 79 | 150 | 1.0 | 4.0 | 0.00 | 0.00 | 0.00 | 52 | 1011.3 |
| 20260503183054 | 78 | 0 | 0.0 | 3.0 | 0.00 | 0.00 | 0.00 | 54 | 1011.5 |
| 20260503181543 | 76 | 129 | 0.0 | 3.0 | 0.00 | 0.00 | 0.00 | 56 | 1011.6 |
| 20260503180054 | 75 | 105 | 2.0 | 5.0 | 0.00 | 0.00 | 0.00 | 55 | 1011.6 |
| 20260503174542 | 75 | 0 | 0.0 | 1.0 | 0.00 | 0.00 | 0.00 | 58 | 1011.6 |
| 20260503173103 | 73 | 94 | 0.0 | 2.0 | 0.00 | 0.00 | 0.00 | 61 | 1011.6 |
| 20260503171549 | 72 | 0 | 0.0 | 2.0 | 0.00 | 0.00 | 0.00 | 64 | 1011.7 |
| 20260503090240 | 52 | 307 | 0.0 | 1.0 | 0.00 | 0.00 | 0.00 | 93 | 1012.8 |
| 20260503081545 | 53 | 294 | 1.0 | 2.0 | 0.00 | 0.00 | 0.00 | 91 | 1012.9 |
| 20260503071548 | 55 | 0 | 0.0 | 0.0 | 0.00 | 0.00 | 0.00 | 89 | 1013.0 |
| 20260503054542 | 59 | 314 | 0.0 | 1.0 | 0.00 | 0.00 | 0.00 | 82 | 1012.9 |
| 20260503053037 | 60 | 294 | 1.0 | 2.0 | 0.00 | 0.00 | 0.00 | 79 | 1013.0 |
| 20260503051550 | 61 | 0 | 0.0 | 3.0 | 0.00 | 0.00 | 0.00 | 79 | 1013.2 |
| 20260503050144 | 61 | 302 | 0.0 | 3.0 | 0.00 | 0.00 | 0.00 | 78 | 1013.2 |
| 20260503050044 | 61 | 302 | 0.0 | 3.0 | 0.00 | 0.00 | 0.00 | 78 | 1013.2 |
| 20260503044541 | 62 | 0 | 0.0 | 0.0 | 0.00 | 0.00 | 0.00 | 77 | 1013.1 |
| 20260503043041 | 62 | 0 | 0.0 | 4.0 | 0.00 | 0.00 | 0.00 | 76 | 1013.0 |
| 20260503041541 | 63 | 292 | 1.0 | 4.0 | 0.00 | 0.00 | 0.00 | 75 | 1012.8 |
| 20260503040044 | 63 | 0 | 0.0 | 2.0 | 0.00 | 0.00 | 0.00 | 76 | 1012.6 |
| 20260503034540 | 63 | 310 | 0.0 | 4.0 | 0.00 | 0.00 | 0.00 | 76 | 1012.4 |
| 20260503033207 | 63 | 278 | 0.0 | 3.0 | 0.00 | 0.00 | 0.00 | 75 | 1012.3 |
| 20260503033046 | 63 | 278 | 0.0 | 3.0 | 0.00 | 0.00 | 0.00 | 75 | 1012.3 |
| 20260503031538 | 64 | 282 | 2.0 | 3.0 | 0.00 | 0.00 | 0.00 | 73 | 1012.1 |
| 20260503030156 | 65 | 0 | 0.0 | 1.0 | 0.00 | 0.00 | 0.00 | 71 | 1012.5 |
| 20260503030042 | 65 | 0 | 0.0 | 1.0 | 0.00 | 0.00 | 0.00 | 71 | 1012.5 |
| 20260503024546 | 65 | 0 | 0.0 | 1.0 | 0.00 | 0.00 | 0.00 | 70 | 1012.7 |
| 20260503023037 | 66 | 0 | 0.0 | 3.0 | 0.00 | 0.00 | 0.00 | 69 | 1012.8 |
| 20260503021633 | 67 | 80 | 0.0 | 4.0 | 0.00 | 0.00 | 0.00 | 68 | 1012.9 |
| 20260503021548 | 67 | 80 | 0.0 | 4.0 | 0.00 | 0.00 | 0.00 | 68 | 1012.9 |
| 20260503020050 | 68 | 58 | 0.0 | 3.0 | 0.00 | 0.00 | 0.00 | 67 | 1012.7 |
| 20260503014607 | 68 | 120 | 1.0 | 4.0 | 0.00 | 0.00 | 0.00 | 66 | 1012.3 |
| 20260503013040 | 70 | 0 | 0.0 | 3.0 | 0.00 | 0.00 | 0.00 | 64 | 1012.1 |